Simultaneous Nadir Overpasses (SNOs) Predictions

Prediction of SNOs between AURA and NPP Satellite Orbit:

Table of predicted SNOs for the next 14.0 days since TLE Epoch: 4/11/2021
Index Date (AURA) Time (AURA) Lat,Lon (AURA) SZA (AURA ) Date (NPP) Time (NPP) Lat,Lon (NPP) SZA (NPP ) Distance(km) Time Diff (sec)
1 04/12/2021 11:25:06 79.35, -95.56 83.95 04/12/2021 11:24:03 79.36, -95.47 83.98 2.04 63
2 04/12/2021 12:14:26 -79.62, 73.96 96.47 04/12/2021 12:14:40 -79.63, 74.10 96.50 3.03 14
3 04/15/2021 03:41:33 79.36, 20.39 82.96 04/15/2021 03:40:56 79.35, 20.30 83.00 1.92 37
4 04/15/2021 04:30:53 -79.63,-170.06 97.47 04/15/2021 04:31:33 -79.63,-170.10 97.49 0.87 40
5 04/17/2021 19:57:57 79.52, 137.36 81.77 04/17/2021 19:57:45 79.52, 137.41 81.76 1.13 12
6 04/17/2021 20:47:18 -79.75, -53.30 98.60 04/17/2021 20:48:23 -79.76, -53.19 98.67 2.23 65
7 04/20/2021 11:25:05 -79.31, 84.17 98.85 04/20/2021 11:24:01 -79.31, 84.18 98.81 0.38 64
8 04/20/2021 12:14:25 79.52,-106.74 80.83 04/20/2021 12:14:39 79.52,-106.83 80.83 1.73 14
9 04/23/2021 03:41:32 -79.35,-159.69 99.82 04/23/2021 03:40:54 -79.34,-159.78 99.78 1.87 38



Historial Predications of SNOs between AURA and NPP
